Overview Statistics Trail Chart Weather Telemetry Raw packets
 

This is the latest recevied weather packets stored in our database for station/object SV9TNF-56. If no packets are shown the sender has not sent any weather packets the latest 10 day(s).

<< 97 98 99 100 101 102 103 >>
Time Temp. Humidity Pressure Rain* Wind** Luminosity Snow
1787933487 27.78° C 57% 1018 hPa 0 mm 5.36 m/s, 264° - -
1787933186 27.78° C 56% 1018 hPa 0 mm 6.26 m/s, 175° - -
1787932886 27.78° C 56% 1018 hPa 0 mm 8.05 m/s, 127° - -
1787932586 27.78° C 53% 1018 hPa 0 mm 12.07 m/s, 180° - -
1787932286 28.33° C 52% 1018 hPa 0 mm 6.26 m/s, 130° - -
1787931986 28.33° C 52% 1018 hPa 0 mm 6.26 m/s, 222° - -
1787931686 28.33° C 51% 1018 hPa 0 mm 6.26 m/s, 280° - -
1787931389 28.33° C 52% 1018 hPa 0 mm 7.6 m/s, 222° - -
1787931085 28.89° C 51% 1018 hPa 0 mm 6.26 m/s, 144° - -
1787930786 28.89° C 51% 1018 hPa 0 mm 8.05 m/s, 120° - -
1787930485 28.89° C 50% 1018 hPa 0 mm 6.26 m/s, 182° - -
1787930185 29.44° C 51% 1018 hPa 0 mm 12.07 m/s, 233° - -
1787929885 29.44° C 50% 1018 hPa 0 mm 4.92 m/s, 74° - -
1787929585 29.44° C 47% 1018 hPa 0 mm 8.49 m/s, 156° - -
1787929285 29.44° C 46% 1018 hPa 0 mm 7.15 m/s, 180° - -
1787928985 30° C 45% 1018 hPa 0 mm 7.15 m/s, 186° - -
1787928691 29.44° C 47% 1018 hPa 0 mm 6.26 m/s, 210° - -
1787928385 29.44° C 48% 1018 hPa 0 mm 4.92 m/s, 91° - -
1787928085 29.44° C 47% 1018 hPa 0 mm 2.68 m/s, 114° - -
1787927784 29.44° C 48% 1017.6 hPa 0 mm 2.68 m/s, 150° - -
1787927484 29.44° C 48% 1017.6 hPa 0 mm 6.26 m/s, 210° - -
1787927184 29.44° C 47% 1017.6 hPa 0 mm 5.81 m/s, 280° - -
1787926884 29.44° C 47% 1017.6 hPa 0 mm 7.15 m/s, 145° - -
1787926584 29.44° C 48% 1017.6 hPa 0 mm 5.81 m/s, 209° - -
1787926284 29.44° C 47% 1018 hPa 0 mm 9.83 m/s, 151° - -

* Rain latest hour (hover to see other rain measurements)
** Current wind speed in m/s (hover to see current wind gust speed)